カタログに戻る

SPOT 4

運用中科学SSO
NORAD 25260·PAYLOAD·🇫🇷 France

打ち上げ Mar 24, 1998 から Guiana Space Centre

Loading…

次のパス (今後24時間)

TLE

最新Source: Space-Track

元期: Sep 14, 2026, 04:34 UTC

1 25260U 98017A   26257.19033648  .00000218  00000-0  59696-4 0  9996
2 25260  98.2468 351.8709 0011446 310.7832  49.2372 14.56152543492263

AllMySatでSPOT 4をリアルタイム追跡

Download on the App Store